Time,TemperatureF,DewpointF,PressureIn,WindDirection,WindDirectionDegrees,WindSpeedMPH,WindSpeedGustMPH,Humidity,HourlyPrecipIn,Conditions,Clouds,dailyrainin,SoftwareType,DateUTC
2013-11-23 00:03:00,31.0,28.9,30.54,NW,315,4.1,9.2,92,0.00,,,0.00,WeatherDisplay:10.37,2013-11-23 06:03:00,
2013-11-23 00:08:00,31.0,28.9,30.53,North,5,5.3,9.0,92,0.00,,,0.00,WeatherDisplay:10.37,2013-11-23 06:08:00,
2013-11-23 00:13:00,31.0,28.9,30.53,North,357,4.0,7.0,92,0.00,,,0.00,WeatherDisplay:10.37,2013-11-23 06:13:00,
2013-11-23 00:18:00,31.0,28.9,30.53,NNE,20,5.6,9.2,92,0.00,,,0.00,WeatherDisplay:10.37,2013-11-23 06:18:00,
2013-11-23 00:23:00,31.0,28.9,30.53,NNW,346,3.7,8.1,92,0.00,,,0.00,WeatherDisplay:10.37,2013-11-23 06:23:00,
2013-11-23 00:28:00,31.1,29.0,30.53,NE,47,4.8,5.8,92,0.00,,,0.00,WeatherDisplay:10.37,2013-11-23 06:28:00,
2013-11-23 00:33:00,31.1,29.0,30.53,ENE,67,3.0,8.1,92,0.00,,,0.00,WeatherDisplay:10.37,2013-11-23 06:33:00,
2013-11-23 00:38:00,31.1,29.0,30.53,North,11,3.4,7.0,92,0.00,,,0.00,WeatherDisplay:10.37,2013-11-23 06:38:00,
2013-11-23 00:43:00,31.2,29.1,30.53,NW,322,3.0,9.2,92,0.00,,,0.00,WeatherDisplay:10.37,2013-11-23 06:43:00,
2013-11-23 00:48:00,31.2,29.1,30.53,NNW,328,4.4,8.1,92,0.00,,,0.00,WeatherDisplay:10.37,2013-11-23 06:48:00,
2013-11-23 00:53:00,31.2,29.1,30.53,NNE,16,3.1,4.6,92,0.00,,,0.00,WeatherDisplay:10.37,2013-11-23 06:53:00,
2013-11-23 00:58:00,31.2,29.1,30.53,NNW,328,4.2,6.9,92,0.00,,,0.00,WeatherDisplay:10.37,2013-11-23 06:58:00,
2013-11-23 01:03:00,31.2,29.1,30.53,NNE,32,2.2,4.6,92,0.00,,,0.00,WeatherDisplay:10.37,2013-11-23 07:03:00,
2013-11-23 01:08:00,31.2,29.1,30.53,NE,37,0.7,6.0,92,0.00,,,0.00,WeatherDisplay:10.37,2013-11-23 07:08:00,
2013-11-23 01:13:00,31.2,29.1,30.53,NNE,23,0.3,4.6,92,0.00,CLR,,0.00,WeatherDisplay:10.37,2013-11-23 07:13:00,
2013-11-23 01:18:00,31.3,29.2,30.54,NNW,328,2.5,5.0,92,0.00,CLR,,0.00,WeatherDisplay:10.37,2013-11-23 07:18:00,
2013-11-23 01:23:00,31.3,29.2,30.53,NNE,13,3.7,6.0,92,0.00,CLR,,0.00,WeatherDisplay:10.37,2013-11-23 07:23:00,
2013-11-23 01:28:00,31.3,29.2,30.54,NW,316,1.5,5.8,92,0.00,CLR,,0.00,WeatherDisplay:10.37,2013-11-23 07:28:00,
2013-11-23 01:33:00,31.3,29.2,30.54,NNE,12,2.2,8.0,92,0.00,CLR,,0.00,WeatherDisplay:10.37,2013-11-23 07:33:00,
2013-11-23 01:38:00,31.4,29.3,30.54,NE,39,3.4,6.9,92,0.00,CLR,,0.00,WeatherDisplay:10.37,2013-11-23 07:38:00,
2013-11-23 01:43:00,31.4,29.3,30.55,NE,40,4.3,6.9,92,0.00,CLR,,0.00,WeatherDisplay:10.37,2013-11-23 07:43:00,
2013-11-23 01:48:00,31.4,29.3,30.55,WNW,290,1.1,3.5,92,0.00,CLR,,0.00,WeatherDisplay:10.37,2013-11-23 07:48:00,
2013-11-23 01:53:00,31.4,29.1,30.55,NNW,328,2.5,4.6,91,0.00,CLR,,0.00,WeatherDisplay:10.37,2013-11-23 07:53:00,
2013-11-23 01:58:00,31.4,29.3,30.54,NE,46,3.8,6.9,92,0.00,CLR,,0.00,WeatherDisplay:10.37,2013-11-23 07:58:00,
2013-11-23 02:03:00,31.4,29.3,30.55,North,350,0.9,2.3,92,0.00,CLR,,0.00,WeatherDisplay:10.37,2013-11-23 08:03:00,
2013-11-23 02:08:00,31.4,29.1,30.54,NNW,339,4.0,9.2,91,0.00,CLR,,0.00,WeatherDisplay:10.37,2013-11-23 08:08:00,
2013-11-23 02:13:00,31.4,29.1,30.54,NNE,22,4.8,8.1,91,0.00,,,0.00,WeatherDisplay:10.37,2013-11-23 08:13:00,
2013-11-23 02:18:00,31.4,29.1,30.53,NNE,13,5.2,8.1,91,0.00,,,0.00,WeatherDisplay:10.37,2013-11-23 08:18:00,
2013-11-23 02:23:00,31.4,29.3,30.54,NW,308,2.2,3.5,92,0.00,,,0.00,WeatherDisplay:10.37,2013-11-23 08:23:00,
2013-11-23 02:28:00,31.4,29.3,30.54,NNW,335,3.8,5.8,92,0.00,,,0.00,WeatherDisplay:10.37,2013-11-23 08:28:00,
2013-11-23 02:33:00,31.4,29.3,30.54,North,9,2.1,5.8,92,0.00,,,0.00,WeatherDisplay:10.37,2013-11-23 08:33:00,
2013-11-23 02:38:00,31.4,29.3,30.55,NW,306,3.1,5.8,92,0.00,,,0.00,WeatherDisplay:10.37,2013-11-23 08:38:00,
2013-11-23 02:43:00,31.4,29.3,30.55,NE,49,2.9,6.9,92,0.00,,,0.00,WeatherDisplay:10.37,2013-11-23 08:43:00,
2013-11-23 02:48:00,31.4,29.1,30.55,NNW,330,4.5,5.8,91,0.00,,,0.00,WeatherDisplay:10.37,2013-11-23 08:48:00,
2013-11-23 02:53:00,31.4,29.1,30.55,NNW,341,4.5,6.0,91,0.00,,,0.00,WeatherDisplay:10.37,2013-11-23 08:53:00,
2013-11-23 02:58:00,31.4,29.1,30.55,NNW,345,1.8,3.5,91,0.00,,,0.00,WeatherDisplay:10.37,2013-11-23 08:58:00,
2013-11-23 03:04:00,31.4,29.1,30.56,NE,42,1.6,5.8,91,0.00,,,0.00,WeatherDisplay:10.37,2013-11-23 09:04:00,
2013-11-23 03:09:00,31.4,29.1,30.56,NNW,333,1.6,6.9,91,0.00,,,0.00,WeatherDisplay:10.37,2013-11-23 09:09:00,
2013-11-23 03:14:00,31.4,29.1,30.55,NNE,19,4.2,6.9,91,0.00,,,0.00,WeatherDisplay:10.37,2013-11-23 09:14:00,
2013-11-23 03:19:00,31.4,29.1,30.56,NW,321,3.6,6.9,91,0.00,,,0.00,WeatherDisplay:10.37,2013-11-23 09:19:00,
2013-11-23 03:24:00,31.3,29.0,30.56,WNW,303,3.9,5.8,91,0.00,,,0.00,WeatherDisplay:10.37,2013-11-23 09:24:00,
2013-11-23 03:29:00,31.3,29.0,30.55,NNE,20,3.0,7.0,91,0.00,,,0.00,WeatherDisplay:10.37,2013-11-23 09:29:00,
2013-11-23 03:34:00,31.2,28.9,30.54,NNE,23,2.3,6.0,91,0.00,,,0.00,WeatherDisplay:10.37,2013-11-23 09:34:00,
2013-11-23 03:39:00,31.2,28.9,30.54,NNW,347,3.8,5.8,91,0.00,,,0.00,WeatherDisplay:10.37,2013-11-23 09:39:00,
2013-11-23 03:44:00,31.2,28.9,30.54,NNW,330,2.4,3.5,91,0.00,,,0.00,WeatherDisplay:10.37,2013-11-23 09:44:00,
2013-11-23 03:49:00,31.2,28.9,30.55,NNW,345,3.7,3.7,91,0.00,,,0.00,WeatherDisplay:10.37,2013-11-23 09:49:00,
2013-11-23 03:54:00,31.2,28.9,30.56,NW,311,3.9,6.9,91,0.00,,,0.00,WeatherDisplay:10.37,2013-11-23 09:54:00,
2013-11-23 03:59:00,31.2,28.9,30.56,NNE,20,5.0,8.1,91,0.00,,,0.00,WeatherDisplay:10.37,2013-11-23 09:59:00,
2013-11-23 04:04:00,31.1,28.8,30.55,North,356,4.8,5.0,91,0.00,,,0.00,WeatherDisplay:10.37,2013-11-23 10:04:00,
2013-11-23 04:09:00,31.1,28.8,30.55,NNW,340,4.6,5.0,91,0.00,,,0.00,WeatherDisplay:10.37,2013-11-23 10:09:00,
2013-11-23 04:14:00,31.1,28.8,30.56,NW,316,1.0,4.0,91,0.00,,,0.00,WeatherDisplay:10.37,2013-11-23 10:14:00,
2013-11-23 04:19:00,31.1,28.8,30.56,NNE,18,3.9,6.9,91,0.00,,,0.00,WeatherDisplay:10.37,2013-11-23 10:19:00,
2013-11-23 04:24:00,31.0,28.4,30.56,NNE,18,4.3,5.8,90,0.00,,,0.00,WeatherDisplay:10.37,2013-11-23 10:24:00,
2013-11-23 04:29:00,31.0,28.7,30.56,NW,317,0.8,6.9,91,0.00,,,0.00,WeatherDisplay:10.37,2013-11-23 10:29:00,
2013-11-23 04:34:00,30.9,28.6,30.56,NNW,340,7.7,9.0,91,0.00,,,0.00,WeatherDisplay:10.37,2013-11-23 10:34:00,
2013-11-23 04:39:00,30.8,28.5,30.56,North,354,4.7,6.9,91,0.00,,,0.00,WeatherDisplay:10.37,2013-11-23 10:39:00,
2013-11-23 04:44:00,30.7,28.4,30.55,NW,312,2.4,6.9,91,0.00,,,0.00,WeatherDisplay:10.37,2013-11-23 10:44:00,
2013-11-23 04:49:00,30.6,28.3,30.56,NNW,333,2.1,4.6,91,0.00,,,0.00,WeatherDisplay:10.37,2013-11-23 10:49:00,
2013-11-23 04:54:00,30.5,28.2,30.56,NNW,328,1.9,5.0,91,0.00,,,0.00,WeatherDisplay:10.37,2013-11-23 10:54:00,
2013-11-23 04:59:00,30.4,28.1,30.57,NNW,341,2.5,5.8,91,0.00,,,0.00,WeatherDisplay:10.37,2013-11-23 10:59:00,
2013-11-23 05:04:00,30.2,27.9,30.57,NNE,23,2.0,3.5,91,0.00,,,0.00,WeatherDisplay:10.37,2013-11-23 11:04:00,
2013-11-23 05:09:00,30.0,27.7,30.56,NNW,334,1.3,2.3,91,0.00,,,0.00,WeatherDisplay:10.37,2013-11-23 11:09:00,
2013-11-23 05:14:00,29.9,27.6,30.57,NW,322,2.3,3.5,91,0.00,,,0.00,WeatherDisplay:10.37,2013-11-23 11:14:00,
2013-11-23 05:19:00,29.8,27.5,30.58,NW,312,3.8,4.6,91,0.00,,,0.00,WeatherDisplay:10.37,2013-11-23 11:19:00,
2013-11-23 05:24:00,29.8,27.5,30.58,NNW,342,1.4,3.5,91,0.00,,,0.00,WeatherDisplay:10.37,2013-11-23 11:24:00,
2013-11-23 05:29:00,29.7,27.4,30.58,NW,317,3.4,8.1,91,0.00,,,0.00,WeatherDisplay:10.37,2013-11-23 11:29:00,
2013-11-23 05:34:00,29.7,27.4,30.58,West,264,2.3,5.8,91,0.00,,,0.00,WeatherDisplay:10.37,2013-11-23 11:34:00,
2013-11-23 05:39:00,29.6,27.3,30.58,North,356,2.8,3.5,91,0.00,,,0.00,WeatherDisplay:10.37,2013-11-23 11:39:00,
2013-11-23 05:44:00,29.6,27.3,30.58,West,278,4.2,4.6,91,0.00,,,0.00,WeatherDisplay:10.37,2013-11-23 11:44:00,
2013-11-23 05:49:00,29.5,27.2,30.58,NNW,343,3.0,4.6,91,0.00,,,0.00,WeatherDisplay:10.37,2013-11-23 11:49:00,
2013-11-23 05:54:00,29.5,27.2,30.58,NNW,345,5.5,9.2,91,0.00,,,0.00,WeatherDisplay:10.37,2013-11-23 11:54:00,
2013-11-23 05:59:00,29.6,27.3,30.58,NNW,338,3.1,4.6,91,0.00,,,0.00,WeatherDisplay:10.37,2013-11-23 11:59:00,
2013-11-23 06:04:00,29.7,27.7,30.58,NW,324,5.3,9.2,92,0.00,,,0.00,WeatherDisplay:10.37,2013-11-23 12:04:00,
2013-11-23 06:09:00,29.8,27.8,30.59,NNW,338,3.2,5.0,92,0.00,,,0.00,WeatherDisplay:10.37,2013-11-23 12:09:00,
2013-11-23 06:14:00,29.8,27.5,30.59,NNE,29,2.3,5.0,91,0.00,,,0.00,WeatherDisplay:10.37,2013-11-23 12:14:00,
2013-11-23 06:19:00,29.9,27.6,30.59,NNW,330,2.7,4.6,91,0.00,,,0.00,WeatherDisplay:10.37,2013-11-23 12:19:00,
2013-11-23 06:24:00,30.0,27.7,30.59,North,352,5.9,10.4,91,0.00,,,0.00,WeatherDisplay:10.37,2013-11-23 12:24:00,
2013-11-23 06:29:00,30.1,27.8,30.59,NE,56,3.8,8.1,91,0.00,CLR,,0.00,WeatherDisplay:10.37,2013-11-23 12:29:00,
2013-11-23 06:34:00,30.2,27.6,30.60,NW,323,2.3,4.6,90,0.00,CLR,,0.00,WeatherDisplay:10.37,2013-11-23 12:34:00,
2013-11-23 06:39:00,30.2,27.6,30.59,NW,311,0.7,3.0,90,0.00,CLR,,0.00,WeatherDisplay:10.37,2013-11-23 12:39:00,
2013-11-23 06:44:00,30.3,27.7,30.60,NNE,31,3.1,6.9,90,0.00,CLR,,0.00,WeatherDisplay:10.37,2013-11-23 12:44:00,
2013-11-23 06:49:00,30.3,27.4,30.60,NW,315,2.3,5.8,89,0.00,CLR,,0.00,WeatherDisplay:10.37,2013-11-23 12:49:00,
2013-11-23 06:54:00,30.4,27.5,30.60,NNW,328,2.4,5.0,89,0.00,CLR,,0.00,WeatherDisplay:10.37,2013-11-23 12:54:00,
2013-11-23 06:59:00,30.4,27.0,30.60,NNW,334,3.5,8.1,87,0.00,CLR,,0.00,WeatherDisplay:10.37,2013-11-23 12:59:00,
2013-11-23 07:04:00,30.4,26.7,30.60,WNW,285,5.5,8.1,86,0.00,CLR,,0.00,WeatherDisplay:10.37,2013-11-23 13:04:00,
2013-11-23 07:09:00,30.5,26.8,30.61,North,6,2.1,3.5,86,0.00,CLR,,0.00,WeatherDisplay:10.37,2013-11-23 13:09:00,
2013-11-23 07:14:00,30.5,26.8,30.61,NNW,346,2.4,5.0,86,0.00,CLR,,0.00,WeatherDisplay:10.37,2013-11-23 13:14:00,
2013-11-23 07:19:00,30.5,26.8,30.61,NW,322,5.0,11.5,86,0.00,CLR,,0.00,WeatherDisplay:10.37,2013-11-23 13:19:00,
2013-11-23 07:24:00,30.5,26.2,30.61,ENE,63,4.6,6.9,84,0.00,CLR,,0.00,WeatherDisplay:10.37,2013-11-23 13:24:00,
2013-11-23 07:29:00,30.5,26.0,30.61,NNE,20,1.5,2.3,83,0.00,CLR,,0.00,WeatherDisplay:10.37,2013-11-23 13:29:00,
2013-11-23 07:34:00,30.5,26.0,30.62,North,356,1.3,7.0,83,0.00,CLR,,0.00,WeatherDisplay:10.37,2013-11-23 13:34:00,
2013-11-23 07:39:00,30.5,25.7,30.62,NNW,345,0.7,5.8,82,0.00,CLR,,0.00,WeatherDisplay:10.37,2013-11-23 13:39:00,
2013-11-23 07:44:00,30.6,25.2,30.62,NNE,30,5.1,9.2,80,0.00,CLR,,0.00,WeatherDisplay:10.37,2013-11-23 13:44:00,
2013-11-23 07:49:00,30.6,25.2,30.63,NNW,334,3.0,4.6,80,0.00,CLR,,0.00,WeatherDisplay:10.37,2013-11-23 13:49:00,
2013-11-23 07:54:00,30.6,24.6,30.63,NW,307,2.5,8.1,78,0.00,CLR,,0.00,WeatherDisplay:10.37,2013-11-23 13:54:00,
2013-11-23 07:59:00,30.8,25.4,30.64,NW,324,1.9,3.5,80,0.00,CLR,,0.00,WeatherDisplay:10.37,2013-11-23 13:59:00,
2013-11-23 08:04:00,30.8,24.4,30.63,NW,316,3.7,5.8,77,0.00,CLR,,0.00,WeatherDisplay:10.37,2013-11-23 14:04:00,
2013-11-23 08:09:00,30.8,24.1,30.63,NNW,338,4.5,6.9,76,0.00,CLR,,0.00,WeatherDisplay:10.37,2013-11-23 14:09:00,
2013-11-23 08:14:00,30.8,24.1,30.63,WNW,297,3.8,8.1,76,0.00,CLR,,0.00,WeatherDisplay:10.37,2013-11-23 14:14:00,
2013-11-23 08:19:00,30.9,23.9,30.63,NNE,20,2.9,4.6,75,0.00,CLR,,0.00,WeatherDisplay:10.37,2013-11-23 14:19:00,
2013-11-23 08:24:00,30.9,23.6,30.63,ENE,72,2.3,6.9,74,0.00,CLR,,0.00,WeatherDisplay:10.37,2013-11-23 14:24:00,
2013-11-23 08:29:00,31.0,23.7,30.63,NNE,32,2.5,3.5,74,0.00,CLR,,0.00,WeatherDisplay:10.37,2013-11-23 14:29:00,
2013-11-23 08:34:00,31.2,23.9,30.63,NE,51,2.3,7.0,74,0.00,CLR,,0.00,WeatherDisplay:10.37,2013-11-23 14:34:00,
2013-11-23 08:39:00,31.3,22.6,30.64,NNW,340,1.1,3.5,70,0.00,CLR,,0.00,WeatherDisplay:10.37,2013-11-23 14:39:00,
2013-11-23 08:45:00,31.4,23.1,30.63,NNE,30,6.5,9.0,71,0.00,CLR,,0.00,WeatherDisplay:10.37,2013-11-23 14:45:00,
2013-11-23 08:50:00,31.5,22.1,30.63,North,3,4.4,10.0,68,0.00,CLR,,0.00,WeatherDisplay:10.37,2013-11-23 14:50:00,
2013-11-23 08:55:00,31.6,22.2,30.64,NW,308,3.8,6.9,68,0.00,CLR,,0.00,WeatherDisplay:10.37,2013-11-23 14:55:00,
2013-11-23 09:00:00,31.7,21.6,30.64,NE,56,6.4,10.4,66,0.00,CLR,,0.00,WeatherDisplay:10.37,2013-11-23 15:00:00,
2013-11-23 09:05:00,32.0,22.3,30.64,NNW,333,5.3,5.3,67,0.00,CLR,,0.00,WeatherDisplay:10.37,2013-11-23 15:05:00,
2013-11-23 09:10:00,32.1,20.9,30.64,NNW,328,5.2,12.7,63,0.00,CLR,,0.00,WeatherDisplay:10.37,2013-11-23 15:10:00,
2013-11-23 09:15:00,32.2,21.0,30.65,NNW,330,5.4,9.2,63,0.00,CLR,,0.00,WeatherDisplay:10.37,2013-11-23 15:15:00,
2013-11-23 09:20:00,32.3,20.7,30.65,NNW,343,7.1,9.2,62,0.00,CLR,,0.00,WeatherDisplay:10.37,2013-11-23 15:20:00,
2013-11-23 09:25:00,32.4,20.8,30.64,NNW,335,5.7,7.0,62,0.00,CLR,,0.00,WeatherDisplay:10.37,2013-11-23 15:25:00,
2013-11-23 09:30:00,32.6,20.2,30.64,NNE,30,1.9,8.1,60,0.00,CLR,,0.00,WeatherDisplay:10.37,2013-11-23 15:30:00,
2013-11-23 09:35:00,32.8,20.0,30.65,North,1,5.7,9.0,59,0.00,CLR,,0.00,WeatherDisplay:10.37,2013-11-23 15:35:00,
2013-11-23 09:40:00,33.0,20.6,30.65,WNW,298,3.8,3.8,60,0.00,CLR,,0.00,WeatherDisplay:10.37,2013-11-23 15:40:00,
2013-11-23 09:45:00,32.9,18.1,30.66,WNW,294,4.6,6.9,54,0.00,CLR,,0.00,WeatherDisplay:10.37,2013-11-23 15:45:00,
2013-11-23 09:50:00,32.9,18.1,30.66,North,6,6.8,11.5,54,0.00,CLR,,0.00,WeatherDisplay:10.37,2013-11-23 15:50:00,
2013-11-23 09:55:00,32.9,18.9,30.66,NNW,336,4.6,11.5,56,0.00,CLR,,0.00,WeatherDisplay:10.37,2013-11-23 15:55:00,
2013-11-23 10:00:00,33.1,19.9,30.65,NNE,20,6.4,6.4,58,0.00,CLR,,0.00,WeatherDisplay:10.37,2013-11-23 16:00:00,
2013-11-23 10:05:00,33.0,17.3,30.66,NNE,22,8.4,13.0,52,0.00,CLR,,0.00,WeatherDisplay:10.37,2013-11-23 16:05:00,
2013-11-23 10:10:00,33.2,19.2,30.66,NW,323,2.7,8.1,56,0.00,CLR,,0.00,WeatherDisplay:10.37,2013-11-23 16:10:00,
2013-11-23 10:15:00,33.4,18.9,30.66,North,356,1.7,2.0,55,0.00,CLR,,0.00,WeatherDisplay:10.37,2013-11-23 16:15:00,
2013-11-23 10:20:00,33.3,18.0,30.66,NE,53,4.7,8.1,53,0.00,CLR,,0.00,WeatherDisplay:10.37,2013-11-23 16:20:00,
2013-11-23 10:25:00,33.3,18.9,30.66,WNW,301,2.0,5.8,55,0.00,CLR,,0.00,WeatherDisplay:10.37,2013-11-23 16:25:00,
2013-11-23 10:30:00,33.3,17.5,30.66,North,359,4.6,5.8,52,0.00,CLR,,0.00,WeatherDisplay:10.37,2013-11-23 16:30:00,
2013-11-23 10:35:00,33.3,18.4,30.66,North,9,2.3,3.0,54,0.00,CLR,,0.00,WeatherDisplay:10.37,2013-11-23 16:35:00,
2013-11-23 10:40:00,33.4,18.5,30.66,NNW,345,5.3,6.9,54,0.00,CLR,,0.00,WeatherDisplay:10.37,2013-11-23 16:40:00,
2013-11-23 10:45:00,33.2,17.0,30.66,WNW,296,4.5,11.5,51,0.00,CLR,,0.00,WeatherDisplay:10.37,2013-11-23 16:45:00,
2013-11-23 10:50:00,33.3,18.4,30.66,NW,312,1.8,3.5,54,0.00,CLR,,0.00,WeatherDisplay:10.37,2013-11-23 16:50:00,
2013-11-23 10:55:00,33.5,17.7,30.66,NNE,18,3.5,7.0,52,0.00,CLR,,0.00,WeatherDisplay:10.37,2013-11-23 16:55:00,
2013-11-23 11:00:00,33.6,17.4,30.65,NNE,24,4.3,8.1,51,0.00,CLR,,0.00,WeatherDisplay:10.37,2013-11-23 17:00:00,
2013-11-23 11:05:00,33.6,16.5,30.66,NE,45,4.5,8.1,49,0.00,CLR,,0.00,WeatherDisplay:10.37,2013-11-23 17:05:00,
2013-11-23 11:10:00,33.8,16.6,30.65,NW,308,3.4,5.8,49,0.00,CLR,,0.00,WeatherDisplay:10.37,2013-11-23 17:10:00,
2013-11-23 11:15:00,34.1,16.4,30.65,NNE,25,7.4,12.7,48,0.00,CLR,,0.00,WeatherDisplay:10.37,2013-11-23 17:15:00,
2013-11-23 11:20:00,34.1,15.5,30.65,NNE,27,5.8,11.5,46,0.00,CLR,,0.00,WeatherDisplay:10.37,2013-11-23 17:20:00,
2013-11-23 11:25:00,34.2,16.5,30.65,NW,320,3.4,4.6,48,0.00,CLR,,0.00,WeatherDisplay:10.37,2013-11-23 17:25:00,
2013-11-23 11:30:00,34.5,16.8,30.65,NNE,15,3.0,6.9,48,0.00,CLR,,0.00,WeatherDisplay:10.37,2013-11-23 17:30:00,
2013-11-23 11:35:00,34.8,17.6,30.65,NE,51,4.5,8.1,49,0.00,CLR,,0.00,WeatherDisplay:10.37,2013-11-23 17:35:00,
2013-11-23 11:40:00,35.0,17.7,30.64,ENE,65,1.4,3.5,49,0.00,CLR,,0.00,WeatherDisplay:10.37,2013-11-23 17:40:00,
2013-11-23 11:45:00,35.3,16.6,30.65,North,6,5.7,10.4,46,0.00,CLR,,0.00,WeatherDisplay:10.37,2013-11-23 17:45:00,
2013-11-23 11:50:00,35.1,15.9,30.64,NE,49,6.8,12.7,45,0.00,CLR,,0.00,WeatherDisplay:10.37,2013-11-23 17:50:00,
2013-11-23 11:55:00,35.2,17.0,30.65,NW,319,4.0,8.1,47,0.00,CLR,,0.00,WeatherDisplay:10.37,2013-11-23 17:55:00,
2013-11-23 12:00:00,35.4,16.6,30.65,NNW,330,5.7,10.4,46,0.00,CLR,,0.00,WeatherDisplay:10.37,2013-11-23 18:00:00,
2013-11-23 12:05:00,35.2,16.0,30.65,NNE,32,4.6,11.5,45,0.00,CLR,,0.00,WeatherDisplay:10.37,2013-11-23 18:05:00,
2013-11-23 12:10:00,35.2,17.9,30.64,NNE,28,5.1,9.2,49,0.00,CLR,,0.00,WeatherDisplay:10.37,2013-11-23 18:10:00,
2013-11-23 12:15:00,35.2,17.4,30.64,NE,44,5.1,10.4,48,0.00,CLR,,0.00,WeatherDisplay:10.37,2013-11-23 18:15:00,
2013-11-23 12:20:00,35.3,17.5,30.64,NNE,18,9.9,12.7,48,0.00,CLR,,0.00,WeatherDisplay:10.37,2013-11-23 18:20:00,
2013-11-23 12:25:00,35.5,19.1,30.64,NNW,342,4.6,7.0,51,0.00,CLR,,0.00,WeatherDisplay:10.37,2013-11-23 18:25:00,
2013-11-23 12:30:00,35.6,18.8,30.64,NNW,332,6.1,10.4,50,0.00,CLR,,0.00,WeatherDisplay:10.37,2013-11-23 18:30:00,
2013-11-23 12:35:00,35.7,19.8,30.64,WNW,291,4.0,6.9,52,0.00,CLR,,0.00,WeatherDisplay:10.37,2013-11-23 18:35:00,
2013-11-23 12:40:00,36.0,19.6,30.63,North,349,6.5,10.0,51,0.00,CLR,,0.00,WeatherDisplay:10.37,2013-11-23 18:40:00,
2013-11-23 12:45:00,35.9,20.0,30.64,WNW,286,5.7,11.5,52,0.00,CLR,,0.00,WeatherDisplay:10.37,2013-11-23 18:45:00,
2013-11-23 12:50:00,36.3,21.2,30.63,NE,46,2.7,3.5,54,0.00,CLR,,0.00,WeatherDisplay:10.37,2013-11-23 18:50:00,
2013-11-23 12:55:00,36.5,20.5,30.63,NNW,342,9.9,15.0,52,0.00,CLR,,0.00,WeatherDisplay:10.37,2013-11-23 18:55:00,
2013-11-23 13:00:00,36.3,20.3,30.63,SW,236,5.2,9.2,52,0.00,CLR,,0.00,WeatherDisplay:10.37,2013-11-23 19:00:00,
2013-11-23 13:05:00,36.2,20.7,30.63,NW,321,7.3,12.7,53,0.00,CLR,,0.00,WeatherDisplay:10.37,2013-11-23 19:05:00,
2013-11-23 13:11:00,35.9,20.0,30.63,NNW,343,9.8,15.0,52,0.00,CLR,,0.00,WeatherDisplay:10.37,2013-11-23 19:11:00,
2013-11-23 13:16:00,35.7,20.2,30.63,NNW,345,8.3,13.8,53,0.00,CLR,,0.00,WeatherDisplay:10.37,2013-11-23 19:16:00,
2013-11-23 13:21:00,35.8,20.8,30.63,WSW,238,5.8,11.5,54,0.00,CLR,,0.00,WeatherDisplay:10.37,2013-11-23 19:21:00,
2013-11-23 13:26:00,36.2,20.7,30.63,NNW,333,7.3,15.0,53,0.00,CLR,,0.00,WeatherDisplay:10.37,2013-11-23 19:26:00,
2013-11-23 13:31:00,36.3,20.8,30.63,NW,308,4.9,6.9,53,0.00,CLR,,0.00,WeatherDisplay:10.37,2013-11-23 19:31:00,
2013-11-23 13:36:00,36.9,21.8,30.63,WNW,294,7.2,10.4,54,0.00,CLR,,0.00,WeatherDisplay:10.37,2013-11-23 19:36:00,
2013-11-23 13:41:00,37.6,22.0,30.63,NW,320,5.0,6.9,53,0.00,CLR,,0.00,WeatherDisplay:10.37,2013-11-23 19:41:00,
2013-11-23 13:46:00,38.0,22.8,30.62,North,4,4.8,7.0,54,0.00,CLR,,0.00,WeatherDisplay:10.37,2013-11-23 19:46:00,
2013-11-23 13:51:00,37.7,20.2,30.62,NE,37,7.9,14.0,49,0.00,CLR,,0.00,WeatherDisplay:10.37,2013-11-23 19:51:00,
2013-11-23 13:56:00,37.6,21.1,30.62,NE,56,4.0,11.5,51,0.00,CLR,,0.00,WeatherDisplay:10.37,2013-11-23 19:56:00,
2013-11-23 14:01:00,37.6,21.5,30.62,WNW,300,5.5,10.0,52,0.00,CLR,,0.00,WeatherDisplay:10.37,2013-11-23 20:01:00,
2013-11-23 14:06:00,37.5,21.0,30.62,North,356,9.2,13.8,51,0.00,CLR,,0.00,WeatherDisplay:10.37,2013-11-23 20:06:00,
2013-11-23 14:11:00,37.7,21.6,30.62,NW,316,5.5,8.1,52,0.00,CLR,,0.00,WeatherDisplay:10.37,2013-11-23 20:11:00,
2013-11-23 14:16:00,37.9,22.3,30.62,NE,51,2.3,11.5,53,0.00,CLR,,0.00,WeatherDisplay:10.37,2013-11-23 20:16:00,
2013-11-23 14:21:00,38.1,21.5,30.62,NNE,28,6.4,15.0,51,0.00,CLR,,0.00,WeatherDisplay:10.37,2013-11-23 20:21:00,
2013-11-23 14:26:00,37.8,21.7,30.62,NNE,28,6.7,12.7,52,0.00,CLR,,0.00,WeatherDisplay:10.37,2013-11-23 20:26:00,
2013-11-23 14:31:00,37.8,21.7,30.62,NNE,19,6.3,7.0,52,0.00,CLR,,0.00,WeatherDisplay:10.37,2013-11-23 20:31:00,
2013-11-23 14:36:00,37.7,22.1,30.61,North,356,7.1,11.5,53,0.00,CLR,,0.00,WeatherDisplay:10.37,2013-11-23 20:36:00,
2013-11-23 14:41:00,38.1,22.0,30.62,NNW,334,7.9,12.7,52,0.00,CLR,,0.00,WeatherDisplay:10.37,2013-11-23 20:41:00,
2013-11-23 14:46:00,38.2,21.6,30.62,ESE,105,6.0,11.5,51,0.00,CLR,,0.00,WeatherDisplay:10.37,2013-11-23 20:46:00,
2013-11-23 14:51:00,38.3,21.7,30.62,NNE,33,6.6,11.5,51,0.00,CLR,,0.00,WeatherDisplay:10.37,2013-11-23 20:51:00,
2013-11-23 14:56:00,38.5,21.0,30.62,NW,309,10.0,15.0,49,0.00,CLR,,0.00,WeatherDisplay:10.37,2013-11-23 20:56:00,
2013-11-23 15:01:00,38.5,21.5,30.62,NNE,20,8.2,15.0,50,0.00,CLR,,0.00,WeatherDisplay:10.37,2013-11-23 21:01:00,
2013-11-23 15:06:00,38.4,21.4,30.62,North,350,8.6,12.7,50,0.00,CLR,,0.00,WeatherDisplay:10.37,2013-11-23 21:06:00,
2013-11-23 15:11:00,38.4,21.8,30.62,North,6,4.7,10.4,51,0.00,CLR,,0.00,WeatherDisplay:10.37,2013-11-23 21:11:00,
2013-11-23 15:16:00,38.8,23.1,30.62,NW,309,4.0,6.9,53,0.00,CLR,,0.00,WeatherDisplay:10.37,2013-11-23 21:16:00,
2013-11-23 15:21:00,38.9,22.8,30.62,NNW,339,5.3,11.5,52,0.00,CLR,,0.00,WeatherDisplay:10.37,2013-11-23 21:21:00,
2013-11-23 15:26:00,38.6,21.1,30.62,NNW,347,10.2,17.3,49,0.00,CLR,,0.00,WeatherDisplay:10.37,2013-11-23 21:26:00,
2013-11-23 15:31:00,38.1,21.5,30.63,NNE,14,3.4,8.1,51,0.00,CLR,,0.00,WeatherDisplay:10.37,2013-11-23 21:31:00,
2013-11-23 15:36:00,37.7,21.6,30.63,NNW,338,5.6,11.5,52,0.00,CLR,,0.00,WeatherDisplay:10.37,2013-11-23 21:36:00,
2013-11-23 15:41:00,37.7,21.6,30.63,NNW,328,10.1,15.0,52,0.00,CLR,,0.00,WeatherDisplay:10.37,2013-11-23 21:41:00,
2013-11-23 15:46:00,37.2,21.2,30.62,North,354,8.6,11.5,52,0.00,CLR,,0.00,WeatherDisplay:10.37,2013-11-23 21:46:00,
2013-11-23 15:51:00,36.9,21.8,30.62,NNE,33,6.5,10.4,54,0.00,CLR,,0.00,WeatherDisplay:10.37,2013-11-23 21:51:00,
2013-11-23 15:56:00,36.7,22.0,30.63,NNW,332,6.6,11.5,55,0.00,CLR,,0.00,WeatherDisplay:10.37,2013-11-23 21:56:00,
2013-11-23 16:01:00,36.3,21.2,30.62,NE,36,6.4,9.0,54,0.00,CLR,,0.00,WeatherDisplay:10.37,2013-11-23 22:01:00,
2013-11-23 16:06:00,36.0,21.4,30.62,NNW,345,6.7,10.0,55,0.00,CLR,,0.00,WeatherDisplay:10.37,2013-11-23 22:06:00,
2013-11-23 16:11:00,35.7,21.1,30.63,NW,318,6.4,11.5,55,0.00,CLR,,0.00,WeatherDisplay:10.37,2013-11-23 22:11:00,
2013-11-23 16:16:00,35.2,19.8,30.63,NNW,328,4.9,11.5,53,0.00,CLR,,0.00,WeatherDisplay:10.37,2013-11-23 22:16:00,
2013-11-23 16:21:00,34.9,19.5,30.63,NNW,333,9.1,15.0,53,0.00,CLR,,0.00,WeatherDisplay:10.37,2013-11-23 22:21:00,
2013-11-23 16:26:00,34.7,20.2,30.63,NNE,18,6.8,8.1,55,0.00,CLR,,0.00,WeatherDisplay:10.37,2013-11-23 22:26:00,
2013-11-23 16:31:00,34.5,20.4,30.63,North,6,4.0,7.0,56,0.00,CLR,,0.00,WeatherDisplay:10.37,2013-11-23 22:31:00,
2013-11-23 16:36:00,34.2,20.1,30.64,North,1,5.1,9.2,56,0.00,CLR,,0.00,WeatherDisplay:10.37,2013-11-23 22:36:00,
2013-11-23 16:41:00,34.0,20.3,30.63,WNW,302,5.0,8.1,57,0.00,CLR,,0.00,WeatherDisplay:10.37,2013-11-23 22:41:00,
2013-11-23 16:46:00,33.7,20.1,30.64,NNW,332,3.3,3.5,57,0.00,CLR,,0.00,WeatherDisplay:10.37,2013-11-23 22:46:00,
2013-11-23 16:51:00,33.2,18.3,30.64,NNW,340,6.0,10.4,54,0.00,CLR,,0.00,WeatherDisplay:10.37,2013-11-23 22:51:00,
2013-11-23 16:56:00,32.9,17.2,30.64,North,356,8.6,11.5,52,0.00,CLR,,0.00,WeatherDisplay:10.37,2013-11-23 22:56:00,
2013-11-23 17:01:00,32.5,17.2,30.64,NNW,345,7.1,11.5,53,0.00,CLR,,0.00,WeatherDisplay:10.37,2013-11-23 23:01:00,
2013-11-23 17:06:00,32.2,17.4,30.65,ENE,61,6.7,10.4,54,0.00,CLR,,0.00,WeatherDisplay:10.37,2013-11-23 23:06:00,
2013-11-23 17:09:00,32.0,16.8,30.65,NW,309,4.4,9.2,53,0.00,CLR,,0.00,WeatherDisplay:10.37,2013-11-23 23:09:00,
2013-11-23 17:14:00,31.6,16.4,30.64,NNW,345,8.4,8.4,53,0.00,,,0.00,WeatherDisplay:10.37,2013-11-23 23:14:00,
2013-11-23 17:19:00,31.2,15.6,30.65,NNW,328,11.6,15.0,52,0.00,,,0.00,WeatherDisplay:10.37,2013-11-23 23:19:00,
2013-11-23 17:24:00,30.7,15.6,30.65,North,356,7.9,12.7,53,0.00,,,0.00,WeatherDisplay:10.37,2013-11-23 23:24:00,
2013-11-23 17:29:00,30.2,14.2,30.65,NNE,20,8.7,17.3,51,0.00,,,0.00,WeatherDisplay:10.37,2013-11-23 23:29:00,
2013-11-23 17:34:00,29.9,14.4,30.65,NW,316,6.4,12.0,52,0.00,,,0.00,WeatherDisplay:10.37,2013-11-23 23:34:00,
2013-11-23 17:39:00,29.5,14.9,30.65,North,350,1.3,6.9,54,0.00,,,0.00,WeatherDisplay:10.37,2013-11-23 23:39:00,
2013-11-23 17:44:00,29.3,14.7,30.66,NNW,337,7.9,16.1,54,0.00,,,0.00,WeatherDisplay:10.37,2013-11-23 23:44:00,
2013-11-23 17:49:00,29.1,14.9,30.66,NNE,25,6.0,11.5,55,0.00,,,0.00,WeatherDisplay:10.37,2013-11-23 23:49:00,
2013-11-23 17:54:00,28.9,15.2,30.66,WNW,301,5.4,9.2,56,0.00,,,0.00,WeatherDisplay:10.37,2013-11-23 23:54:00,
2013-11-23 17:59:00,28.8,15.5,30.67,NW,314,6.3,8.1,57,0.00,,,0.00,WeatherDisplay:10.37,2013-11-23 23:59:00,
2013-11-23 18:04:00,28.6,15.3,30.67,NNW,340,5.7,9.2,57,0.00,,,0.00,WeatherDisplay:10.37,2013-11-24 00:04:00,
2013-11-23 18:09:00,28.4,14.7,30.67,NNW,346,5.1,11.5,56,0.00,,,0.00,WeatherDisplay:10.37,2013-11-24 00:09:00,
2013-11-23 18:14:00,28.2,13.7,30.67,WNW,300,8.3,11.5,54,0.00,CLR,,0.00,WeatherDisplay:10.37,2013-11-24 00:14:00,
2013-11-23 18:19:00,28.0,13.9,30.67,North,9,5.9,12.7,55,0.00,CLR,,0.00,WeatherDisplay:10.37,2013-11-24 00:19:00,
2013-11-23 18:24:00,27.8,13.3,30.67,NNW,332,7.1,11.5,54,0.00,CLR,,0.00,WeatherDisplay:10.37,2013-11-24 00:24:00,
2013-11-23 18:29:00,27.7,13.6,30.67,NNE,12,5.1,11.5,55,0.00,CLR,,0.00,WeatherDisplay:10.37,2013-11-24 00:29:00,
2013-11-23 18:34:00,27.5,13.4,30.68,WSW,245,3.6,12.7,55,0.00,CLR,,0.00,WeatherDisplay:10.37,2013-11-24 00:34:00,
2013-11-23 18:39:00,27.4,13.7,30.68,North,349,5.2,6.9,56,0.00,CLR,,0.00,WeatherDisplay:10.37,2013-11-24 00:39:00,
2013-11-23 18:44:00,27.3,13.7,30.67,NNE,18,5.0,6.9,56,0.00,CLR,,0.00,WeatherDisplay:10.37,2013-11-24 00:44:00,
2013-11-23 18:49:00,27.2,13.6,30.68,WNW,301,4.6,9.2,56,0.00,CLR,,0.00,WeatherDisplay:10.37,2013-11-24 00:49:00,
2013-11-23 18:54:00,27.1,13.9,30.68,WNW,299,4.9,6.9,57,0.00,CLR,,0.00,WeatherDisplay:10.37,2013-11-24 00:54:00,
2013-11-23 18:59:00,26.9,13.7,30.68,North,11,3.7,9.2,57,0.00,CLR,,0.00,WeatherDisplay:10.37,2013-11-24 00:59:00,
2013-11-23 19:04:00,26.9,13.7,30.68,NW,322,2.2,3.5,57,0.00,CLR,,0.00,WeatherDisplay:10.37,2013-11-24 01:04:00,
2013-11-23 19:09:00,26.7,13.9,30.68,NNW,342,4.7,8.1,58,0.00,CLR,,0.00,WeatherDisplay:10.37,2013-11-24 01:09:00,
2013-11-23 19:14:00,26.6,13.8,30.68,NW,317,2.9,5.8,58,0.00,CLR,,0.00,WeatherDisplay:10.37,2013-11-24 01:14:00,
2013-11-23 19:19:00,26.5,12.9,30.68,NW,315,4.1,10.4,56,0.00,CLR,,0.00,WeatherDisplay:10.37,2013-11-24 01:19:00,
2013-11-23 19:24:00,26.4,13.2,30.68,NNW,334,2.9,5.8,57,0.00,CLR,,0.00,WeatherDisplay:10.37,2013-11-24 01:24:00,
2013-11-23 19:29:00,26.4,12.8,30.68,North,354,6.7,9.2,56,0.00,CLR,,0.00,WeatherDisplay:10.37,2013-11-24 01:29:00,
2013-11-23 19:34:00,26.3,13.1,30.68,NW,322,5.3,6.9,57,0.00,CLR,,0.00,WeatherDisplay:10.37,2013-11-24 01:34:00,
2013-11-23 19:39:00,26.2,13.0,30.68,NNW,334,5.1,8.1,57,0.00,CLR,,0.00,WeatherDisplay:10.37,2013-11-24 01:39:00,
2013-11-23 19:44:00,26.1,12.9,30.68,NNE,30,3.2,9.2,57,0.00,CLR,,0.00,WeatherDisplay:10.37,2013-11-24 01:44:00,
2013-11-23 19:49:00,26.0,12.8,30.68,North,352,4.4,5.8,57,0.00,CLR,,0.00,WeatherDisplay:10.37,2013-11-24 01:49:00,
2013-11-23 19:54:00,25.8,13.0,30.69,NNW,342,3.2,6.9,58,0.00,CLR,,0.00,WeatherDisplay:10.37,2013-11-24 01:54:00,
2013-11-23 19:59:00,25.7,13.3,30.69,NW,325,4.7,5.8,59,0.00,CLR,,0.00,WeatherDisplay:10.37,2013-11-24 01:59:00,
2013-11-23 20:04:00,25.5,13.1,30.69,NW,312,3.1,3.5,59,0.00,CLR,,0.00,WeatherDisplay:10.37,2013-11-24 02:04:00,
2013-11-23 20:09:00,25.4,13.1,30.69,NW,306,3.9,6.9,59,0.00,CLR,,0.00,WeatherDisplay:10.37,2013-11-24 02:09:00,
2013-11-23 20:14:00,25.3,13.3,30.69,NNE,22,7.7,7.7,60,0.00,CLR,,0.00,WeatherDisplay:10.37,2013-11-24 02:14:00,
2013-11-23 20:19:00,25.3,13.3,30.69,North,359,4.9,5.0,60,0.00,CLR,,0.00,WeatherDisplay:10.37,2013-11-24 02:19:00,
2013-11-23 20:24:00,25.2,12.9,30.69,NE,45,5.4,11.5,59,0.00,CLR,,0.00,WeatherDisplay:10.37,2013-11-24 02:24:00,
2013-11-23 20:29:00,25.1,13.2,30.69,ENE,59,4.6,9.2,60,0.00,CLR,,0.00,WeatherDisplay:10.37,2013-11-24 02:29:00,
2013-11-23 20:34:00,25.0,13.1,30.69,NNW,343,3.3,5.0,60,0.00,CLR,,0.00,WeatherDisplay:10.37,2013-11-24 02:34:00,
2013-11-23 20:39:00,24.9,13.0,30.69,NW,324,8.0,8.1,60,0.00,CLR,,0.00,WeatherDisplay:10.37,2013-11-24 02:39:00,
2013-11-23 20:44:00,24.8,12.9,30.70,North,358,7.6,11.5,60,0.00,CLR,,0.00,WeatherDisplay:10.37,2013-11-24 02:44:00,
2013-11-23 20:49:00,24.7,12.8,30.69,NNE,22,7.0,11.5,60,0.00,CLR,,0.00,WeatherDisplay:10.37,2013-11-24 02:49:00,
2013-11-23 20:54:00,24.6,12.7,30.69,North,6,5.1,8.1,60,0.00,CLR,,0.00,WeatherDisplay:10.37,2013-11-24 02:54:00,
2013-11-23 20:59:00,24.5,13.0,30.69,NW,309,3.8,4.6,61,0.00,CLR,,0.00,WeatherDisplay:10.37,2013-11-24 02:59:00,
2013-11-23 21:04:00,24.3,12.8,30.69,NNW,347,5.3,8.1,61,0.00,CLR,,0.00,WeatherDisplay:10.37,2013-11-24 03:04:00,
2013-11-23 21:09:00,24.2,12.7,30.69,NNE,16,4.7,10.4,61,0.00,,,0.00,WeatherDisplay:10.37,2013-11-24 03:09:00,
2013-11-23 21:14:00,24.1,12.9,30.69,NNW,328,3.0,3.5,62,0.00,,,0.00,WeatherDisplay:10.37,2013-11-24 03:14:00,
2013-11-23 21:19:00,23.9,12.8,30.69,NE,44,5.0,9.2,62,0.00,,,0.00,WeatherDisplay:10.37,2013-11-24 03:19:00,
2013-11-23 21:24:00,23.8,13.0,30.69,NNW,328,4.5,9.2,63,0.00,,,0.00,WeatherDisplay:10.37,2013-11-24 03:24:00,
2013-11-23 21:29:00,23.6,12.8,30.69,NW,322,5.2,8.1,63,0.00,,,0.00,WeatherDisplay:10.37,2013-11-24 03:29:00,
2013-11-23 21:34:00,23.5,12.7,30.69,NNW,335,3.6,9.2,63,0.00,,,0.00,WeatherDisplay:10.37,2013-11-24 03:34:00,
2013-11-23 21:39:00,23.4,12.6,30.69,NW,307,8.6,11.5,63,0.00,,,0.00,WeatherDisplay:10.37,2013-11-24 03:39:00,
2013-11-23 21:44:00,23.2,12.5,30.69,NNE,33,3.2,5.8,63,0.00,,,0.00,WeatherDisplay:10.37,2013-11-24 03:44:00,
2013-11-23 21:49:00,23.1,12.7,30.69,NNW,348,3.6,5.8,64,0.00,,,0.00,WeatherDisplay:10.37,2013-11-24 03:49:00,
2013-11-23 21:54:00,22.9,12.5,30.69,NNE,18,4.3,6.9,64,0.00,,,0.00,WeatherDisplay:10.37,2013-11-24 03:54:00,
2013-11-23 21:59:00,22.8,12.8,30.69,NNW,328,4.8,10.4,65,0.00,,,0.00,WeatherDisplay:10.37,2013-11-24 03:59:00,
2013-11-23 22:04:00,22.7,12.7,30.69,NE,53,4.2,8.1,65,0.00,,,0.00,WeatherDisplay:10.37,2013-11-24 04:04:00,
2013-11-23 22:09:00,22.6,12.6,30.70,NW,317,2.7,3.5,65,0.00,,,0.00,WeatherDisplay:10.37,2013-11-24 04:09:00,
2013-11-23 22:14:00,22.4,12.4,30.69,NNW,340,5.5,10.4,65,0.00,,,0.00,WeatherDisplay:10.37,2013-11-24 04:14:00,
2013-11-23 22:19:00,22.3,12.7,30.70,ENE,72,3.6,5.8,66,0.00,,,0.00,WeatherDisplay:10.37,2013-11-24 04:19:00,
2013-11-23 22:24:00,22.1,12.5,30.70,NNW,345,5.2,10.4,66,0.00,,,0.00,WeatherDisplay:10.37,2013-11-24 04:24:00,
2013-11-23 22:29:00,22.1,12.5,30.70,WNW,302,4.1,7.0,66,0.00,,,0.00,WeatherDisplay:10.37,2013-11-24 04:29:00,
2013-11-23 22:34:00,21.9,12.6,30.70,NNW,340,1.6,3.5,67,0.00,,,0.00,WeatherDisplay:10.37,2013-11-24 04:34:00,
2013-11-23 22:39:00,21.8,12.5,30.70,NNE,32,3.3,4.6,67,0.00,,,0.00,WeatherDisplay:10.37,2013-11-24 04:39:00,
2013-11-23 22:44:00,21.6,12.3,30.70,NNW,338,2.8,8.1,67,0.00,,,0.00,WeatherDisplay:10.37,2013-11-24 04:44:00,
2013-11-23 22:49:00,21.5,12.6,30.71,North,6,0.9,3.5,68,0.00,,,0.00,WeatherDisplay:10.37,2013-11-24 04:49:00,
2013-11-23 22:54:00,21.4,12.5,30.71,NNE,16,4.1,5.8,68,0.00,,,0.00,WeatherDisplay:10.37,2013-11-24 04:54:00,
2013-11-23 22:59:00,21.3,12.7,30.71,North,8,4.8,8.1,69,0.00,,,0.00,WeatherDisplay:10.37,2013-11-24 04:59:00,
2013-11-23 23:01:00,21.2,12.6,30.71,NNE,30,5.0,7.0,69,0.00,,,0.00,WeatherDisplay:10.37,2013-11-24 05:01:00,
2013-11-23 23:06:00,21.1,12.5,30.70,North,354,2.7,9.2,69,0.00,,,0.00,WeatherDisplay:10.37,2013-11-24 05:06:00,
2013-11-23 23:11:00,21.0,12.4,30.70,NE,44,4.1,8.1,69,0.00,,,0.00,WeatherDisplay:10.37,2013-11-24 05:11:00,
2013-11-23 23:16:00,20.8,12.6,30.70,NNW,347,4.1,4.6,70,0.00,,,0.00,WeatherDisplay:10.37,2013-11-24 05:16:00,
2013-11-23 23:21:00,20.7,12.5,30.70,NNE,26,5.4,8.1,70,0.00,,,0.00,WeatherDisplay:10.37,2013-11-24 05:21:00,
2013-11-23 23:26:00,20.5,12.6,30.70,NE,41,4.5,9.2,71,0.00,,,0.00,WeatherDisplay:10.37,2013-11-24 05:26:00,
2013-11-23 23:31:00,20.5,12.6,30.70,North,11,5.3,8.1,71,0.00,,,0.00,WeatherDisplay:10.37,2013-11-24 05:31:00,
2013-11-23 23:36:00,20.4,12.5,30.70,NE,56,5.1,10.4,71,0.00,,,0.00,WeatherDisplay:10.37,2013-11-24 05:36:00,
2013-11-23 23:41:00,20.3,12.4,30.70,NNE,12,4.2,8.1,71,0.00,,,0.00,WeatherDisplay:10.37,2013-11-24 05:41:00,
2013-11-23 23:46:00,20.2,12.3,30.70,NNW,345,5.6,6.9,71,0.00,,,0.00,WeatherDisplay:10.37,2013-11-24 05:46:00,
2013-11-23 23:51:00,20.2,12.3,30.70,NE,51,6.1,11.5,71,0.00,,,0.00,WeatherDisplay:10.37,2013-11-24 05:51:00,
2013-11-23 23:56:00,20.1,12.2,30.70,NNE,26,3.0,6.9,71,0.00,,,0.00,WeatherDisplay:10.37,2013-11-24 05:56:00,
2013-11-23 23:57:00,20.1,12.2,30.70,NW,323,2.5,6.9,71,0.00,,,0.00,WeatherDisplay:10.37,2013-11-24 05:57:00,